Location: Unspecified
(0.0000°N, 0.0000°E)
Time: 16:01:45
(UTC+00:00)

Courier 1B Rocket - All Passes

Search period start: 25 July 2024 00:00
Search period end: 04 August 2024 00:00
Orbit: 920 x 1201 km, 28.3° (Epoch: 24 July)

Date Brightness Start Highest point End Pass type
(mag) Time Alt. Az. Time Alt. Az. Time Alt. Az.
25 Jul - 06:26:00 10° SSW 06:30:10 18° SSE 06:34:29 10° ESE daylight
25 Jul - 08:17:17 10° SW 08:23:55 62° SSE 08:31:03 10° ENE daylight
25 Jul - 10:11:08 10° W 10:17:38 39° NNW 10:24:33 10° NE daylight
25 Jul - 12:08:44 10° NW 12:12:14 14° NNW 12:15:49 10° N daylight
25 Jul - 17:55:25 10° NNW 18:00:13 17° NNE 18:04:51 10° ENE daylight
25 Jul - 19:47:19 10° NW 19:54:32 52° NNE 20:01:16 10° ESE visible
25 Jul - 21:41:25 10° WNW 21:48:10 46° SSW 21:54:29 10° SE visible
25 Jul - 23:39:18 10° SW 23:42:06 13° SSW 23:44:51 10° S night (unlit)
26 Jul - 05:26:54 10° S 05:28:40 11° SSE 05:30:28 10° SE visible
26 Jul - 07:16:35 10° SW 07:22:40 40° SSE 07:29:08 10° E daylight
26 Jul - 09:09:34 10° WSW 09:16:15 58° NNW 09:23:25 10° NE daylight
26 Jul - 11:05:37 10° WNW 11:10:27 19° NNW 11:15:29 10° NNE daylight
26 Jul - 16:55:15 10° N 16:58:23 13° NNE 17:01:28 10° NE daylight
26 Jul - 18:46:14 10° NW 18:53:06 36° NNE 18:59:35 10° E visible
26 Jul - 20:39:34 10° WNW 20:46:54 70° SSW 20:53:43 10° SE visible
26 Jul - 22:35:47 10° WSW 22:40:38 20° SSW 22:45:18 10° SSE night (unlit)
27 Jul - 06:16:10 10° SSW 06:21:25 26° SSE 06:26:53 10° E daylight
27 Jul - 08:08:20 10° WSW 08:14:57 86° NNW 08:22:06 10° ENE daylight
27 Jul - 10:03:11 10° W 10:08:50 26° NNW 10:14:48 10° NNE daylight
27 Jul - 17:45:21 10° NNW 17:51:31 26° NNE 17:57:29 10° E daylight
27 Jul - 19:38:00 10° WNW 19:45:35 80° NNE 19:52:39 10° ESE visible
27 Jul - 21:33:05 10° W 21:39:16 30° SSW 21:45:06 10° SSE visible
28 Jul - 05:16:07 10° SSW 05:20:05 17° SSE 05:24:08 10° ESE visible
28 Jul - 07:07:23 10° SW 07:13:45 63° SSE 07:20:33 10° ENE daylight
28 Jul - 09:01:15 10° W 09:07:22 37° NNW 09:13:56 10° NE daylight
28 Jul - 10:59:01 10° NW 11:01:54 13° NNW 11:04:53 10° N daylight
28 Jul - 16:44:43 10° NNW 16:49:49 18° NNE 16:54:49 10° ENE daylight
28 Jul - 18:36:41 10° NW 18:44:11 55° NNE 18:51:16 10° ESE visible
28 Jul - 20:30:51 10° WNW 20:37:56 46° SSW 20:44:33 10° SE visible
28 Jul - 22:28:44 10° SW 22:31:58 13° SSW 22:35:07 10° S night (unlit)
29 Jul - 04:17:05 10° S 04:18:37 11° SSE 04:20:10 10° SE visible
29 Jul - 06:06:42 10° SW 06:12:34 40° SSE 06:18:44 10° E daylight
29 Jul - 07:59:41 10° WSW 08:06:03 55° NNW 08:12:52 10° NE daylight
29 Jul - 09:55:49 10° WNW 10:00:11 17° NNW 10:04:43 10° NNE daylight
29 Jul - 15:44:31 10° N 15:47:59 13° NNE 15:51:25 10° NE daylight
29 Jul - 17:35:35 10° NW 17:42:41 38° NNE 17:49:32 10° E daylight
29 Jul - 19:28:59 10° WNW 19:36:35 69° SSW 19:43:43 10° SE visible
29 Jul - 21:25:14 10° WSW 21:30:26 21° SSW 21:35:25 10° SSE visible
30 Jul - 05:06:15 10° SSW 05:11:21 26° SSE 05:16:36 10° E visible
30 Jul - 06:58:27 10° WSW 07:04:50 84° NNW 07:11:38 10° ENE daylight
30 Jul - 08:53:22 10° WNW 08:58:37 24° NNW 09:04:09 10° NNE daylight
30 Jul - 16:34:43 10° NNW 16:41:05 27° NNE 16:47:20 10° E daylight
30 Jul - 18:27:23 10° WNW 18:35:11 82° NNE 18:42:35 10° ESE visible
30 Jul - 20:22:31 10° W 20:28:59 31° SSW 20:35:08 10° SSE visible
31 Jul - 04:06:09 10° SSW 04:10:03 17° SSE 04:13:59 10° ESE visible
31 Jul - 05:57:29 10° SW 06:03:41 64° SSE 06:10:11 10° ENE daylight
31 Jul - 07:51:25 10° W 07:57:13 35° NNW 08:03:22 10° NE daylight
31 Jul - 09:49:38 10° NW 09:51:40 11° NNW 09:53:45 10° N daylight
31 Jul - 15:34:09 10° NNW 15:39:23 19° NNE 15:44:35 10° ENE daylight
31 Jul - 17:26:05 10° NW 17:33:44 56° NNE 17:41:08 10° ESE daylight
31 Jul - 19:20:15 10° WNW 19:27:34 46° SSW 19:34:31 10° SE visible
31 Jul - 21:18:04 10° SW 21:21:45 14° SSW 21:25:19 10° S visible
01 Aug - 03:06:55 10° S 03:08:36 11° SSE 03:10:16 10° SE visible
01 Aug - 04:56:45 10° SW 05:02:33 40° SSE 05:08:30 10° E visible
01 Aug - 06:49:50 10° WSW 06:55:58 53° NNW 07:02:26 10° NE daylight
01 Aug - 08:46:08 10° WNW 08:50:00 16° NNW 08:53:58 10° NNE daylight
01 Aug - 14:34:03 10° N 14:37:33 13° NNE 14:41:05 10° NE daylight
01 Aug - 16:25:01 10° NW 16:32:12 39° NNE 16:39:17 10° E daylight
01 Aug - 18:18:22 10° WNW 18:26:09 69° SSW 18:33:36 10° SE visible
01 Aug - 20:14:38 10° WSW 20:20:08 21° SSW 20:25:27 10° SSE visible
02 Aug - 03:56:14 10° SSW 04:01:22 26° SSE 04:06:29 10° E visible
02 Aug - 05:48:33 10° WSW 05:54:49 82° NNW 06:01:18 10° ENE daylight
02 Aug - 07:43:37 10° WNW 07:48:29 23° NNW 07:53:35 10° NNE daylight
02 Aug - 15:24:13 10° NNW 15:30:36 27° NNE 15:37:00 10° E daylight
02 Aug - 17:16:50 10° WNW 17:24:42 83° NNE 17:32:23 10° ESE daylight
02 Aug - 19:11:55 10° W 19:18:37 32° SSW 19:25:04 10° SSE visible
03 Aug - 02:56:00 10° SSW 03:00:02 17° SSE 03:04:02 10° ESE visible
03 Aug - 04:47:31 10° SW 04:53:42 65° SSE 04:59:59 10° ENE visible
03 Aug - 06:41:36 10° W 06:47:09 33° NNW 06:52:57 10° NE daylight
03 Aug - 08:41:06 10° NNW 08:41:31 10° NNW 08:41:57 10° NNW daylight
03 Aug - 14:23:45 10° NNW 14:28:56 19° NNE 14:34:11 10° ENE daylight
03 Aug - 16:15:34 10° NW 16:23:13 58° NNE 16:30:50 10° ESE daylight
03 Aug - 18:09:41 10° W 18:17:07 46° SSW 18:24:20 10° SE daylight
03 Aug - 20:07:23 10° SW 20:11:27 15° SSW 20:15:24 10° S visible
